GW2884 Weather Reports


time (UTC)temp
F
wind
direction
speed
knots
gust
knots
rain 1hr
in
rain 24hr
in
rain mn
in
humidity
%
barometer
mb
20260503225457 63 178 2.6 2.6 0.00 0.00 0.00 32 1002.8
20260503224952 64 240 6.1 7.8 0.00 0.00 0.00 31 1002.6
20260503224450 64 202 4.3 6.1 0.00 0.00 0.00 32 1002.6
20260503223947 63 192 3.5 7.0 0.00 0.00 0.00 31 1002.8
20260503223445 63 205 5.2 8.7 0.00 0.00 0.00 32 1002.9
20260503222941 63 193 1.7 3.5 0.00 0.00 0.00 31 1002.8
20260503222439 64 249 2.6 2.6 0.00 0.00 0.00 30 1002.9
20260503221937 65 239 1.7 3.5 0.00 0.00 0.00 30 1003.2
20260503221435 65 295 4.3 5.2 0.00 0.00 0.00 30 1003.0
20260503220932 65 226 7.8 9.6 0.00 0.00 0.00 30 1002.9
20260503220428 65 230 5.2 7.0 0.00 0.00 0.00 31 1003.1
20260503215925 65 203 3.5 3.5 0.00 0.00 0.00 31 1003.0
20260503215422 64 247 4.3 7.8 0.00 0.00 0.00 30 1003.1
20260503214920 64 196 9.6 11.3 0.00 0.00 0.00 30 1003.0
20260503214417 65 264 5.2 7.0 0.00 0.00 0.00 31 1003.0
20260503213914 64 184 7.0 9.6 0.00 0.00 0.00 31 1003.2
20260503213412 65 192 9.6 13.0 0.00 0.00 0.00 31 1003.0
20260503212908 65 238 3.5 3.5 0.00 0.00 0.00 31 1003.3
20260503212406 65 246 6.1 7.8 0.00 0.00 0.00 33 1003.1
20260503211903 67 233 4.3 5.2 0.00 0.00 0.00 30 1003.2
20260503211400 66 251 1.7 3.5 0.00 0.00 0.00 30 1003.1
20260503210855 65 162 6.1 11.3 0.00 0.00 0.00 31 1003.3
20260503210353 65 244 3.5 3.5 0.00 0.00 0.00 32 1003.3
20260503205847 65 270 3.5 6.1 0.00 0.00 0.00 33 1003.3
20260503205344 64 217 4.3 6.1 0.00 0.00 0.00 30 1003.0
20260503204841 64 251 5.2 7.0 0.00 0.00 0.00 30 1003.4
20260503204338 65 185 3.5 6.1 0.00 0.00 0.00 33 1003.4
20260503203835 65 205 5.2 7.0 0.00 0.00 0.00 33 1003.5
20260503203333 64 236 1.7 1.7 0.00 0.00 0.00 34 1003.6
20260503202829 64 196 7.8 9.6 0.00 0.00 0.00 30 1003.5
20260503202328 64 212 7.0 11.3 0.00 0.00 0.00 33 1004.0
20260503201826 64 234 2.6 5.2 0.00 0.00 0.00 29 1004.0
20260503201322 64 204 5.2 7.8 0.00 0.00 0.00 34 1003.8
20260503200820 63 227 5.2 7.0 0.00 0.00 0.00 31 1003.9
20260503200315 64 265 4.3 6.1 0.00 0.00 0.00 31 1003.9
20260503195813 63 220 5.2 6.1 0.00 0.00 0.00 30 1003.9
20260503195309 64 204 6.1 9.6 0.00 0.00 0.00 33 1004.0
20260503194807 63 217 5.2 7.8 0.00 0.00 0.00 32 1004.2
20260503194302 64 299 4.3 7.0 0.00 0.00 0.00 30 1004.1
20260503193759 63 290 3.5 6.1 0.00 0.00 0.00 30 1004.2
20260503193255 63 194 1.7 3.5 0.00 0.00 0.00 30 1004.2
20260503192751 63 292 4.3 6.1 0.00 0.00 0.00 33 1004.5
20260503192246 63 259 7.0 9.6 0.00 0.00 0.00 30 1004.4
20260503191743 63 211 5.2 8.7 0.00 0.00 0.00 32 1004.5
20260503191240 62 261 2.6 3.5 0.00 0.00 0.00 37 1004.4
20260503190737 62 255 1.7 2.6 0.00 0.00 0.00 34 1004.5
20260503190234 62 220 4.3 6.1 0.00 0.00 0.00 31 1004.9
20260503185731 62 179 1.7 2.6 0.00 0.00 0.00 30 1004.6
20260503185226 61 309 5.2 7.8 0.00 0.00 0.00 32 1004.9
20260503184721 63 256 3.5 5.2 0.00 0.00 0.00 32 1004.8
20260503184218 61 270 4.3 6.1 0.00 0.00 0.00 30 1005.0
20260503183714 61 225 2.6 3.5 0.00 0.00 0.00 32 1005.0
20260503183212 62 317 4.3 6.1 0.00 0.00 0.00 31 1005.1
20260503182710 61 190 7.8 13.9 0.00 0.00 0.00 30 1004.8
20260503182208 60 289 1.7 2.6 0.00 0.00 0.00 34 1004.9
20260503181704 60 243 3.5 3.5 0.00 0.00 0.00 33 1005.2
20260503181201 60 138 1.7 2.6 0.00 0.00 0.00 31 1005.3
20260503180658 60 239 7.0 7.8 0.00 0.00 0.00 31 1005.1
20260503180156 60 286 5.2 7.8 0.00 0.00 0.00 30 1005.2
20260503175653 60 253 1.7 2.6 0.00 0.00 0.00 31 1005.2
20260503175150 61 257 2.6 3.5 0.00 0.00 0.00 30 1005.2
20260503174646 62 301 1.7 2.6 0.00 0.00 0.00 31 1005.2
20260503174144 60 171 1.7 1.7 0.00 0.00 0.00 30 1005.4
20260503173639 60 300 5.2 7.8 0.00 0.00 0.00 27 1005.5
20260503173135 60 204 3.5 6.1 0.00 0.00 0.00 28 1005.4
20260503172632 60 260 2.6 3.5 0.00 0.00 0.00 28 1005.6
20260503172130 58 245 7.8 11.3 0.00 0.00 0.00 35 1005.5
20260503171626 59 236 5.2 8.7 0.00 0.00 0.00 27 1005.9
20260503171123 60 229 4.3 6.1 0.00 0.00 0.00 28 1005.7
20260503170621 59 216 4.3 5.2 0.00 0.00 0.00 31 1005.7
20260503170117 59 285 2.6 5.2 0.00 0.00 0.00 28 1005.7
20260503151012 54 254 4.3 7.0 0.00 0.00 0.00 39 1005.5
20260503150509 54 249 4.3 7.0 0.00 0.00 0.00 45 1005.6
20260503131356 48 249 3.5 6.1 0.00 0.00 0.00 84 1005.2
20260503130853 48 242 3.5 5.2 0.00 0.00 0.00 84 1005.3
20260503130351 47 250 3.5 3.5 0.00 0.00 0.00 85 1005.4
20260503110744 33 182 0.0 0.0 0.00 0.00 0.00 99 1004.7
20260503110241 33 182 0.0 0.0 0.00 0.00 0.00 99 1004.8
20260503100208 35 282 0.0 0.0 0.00 0.00 0.00 99 1004.9
20260503090132 37 115 0.0 0.0 0.00 0.00 0.00 99 1005.4
20260503081602 40 77 0.0 0.0 0.00 0.00 0.00 99 1005.3
20260503081059 40 304 0.0 0.9 0.00 0.00 0.00 99 1005.6
20260503080555 41 116 0.0 0.0 0.00 0.00 0.00 99 1005.4
20260503072529 43 281 0.0 0.0 0.00 0.00 0.00 99 1005.7
20260503072026 43 303 0.0 0.9 0.00 0.00 0.00 99 1005.9
20260503071523 44 311 0.0 0.0 0.00 0.00 0.00 99 1005.8
20260503071020 44 311 0.0 0.0 0.00 0.00 0.00 98 1005.7
20260503070516 44 311 0.0 0.0 0.00 0.00 0.00 98 1005.8
20260503054940 47 295 0.9 0.9 0.00 0.00 0.00 99 1006.6
20260503054436 46 107 0.0 0.0 0.00 0.00 0.00 99 1006.5
20260503053934 46 93 0.0 0.0 0.00 0.00 0.00 99 1006.4
20260503053432 47 99 0.0 0.0 0.00 0.00 0.00 99 1006.6
20260503052928 47 78 0.0 0.0 0.00 0.00 0.00 99 1006.5
20260503052425 47 292 2.6 2.6 0.00 0.00 0.00 99 1006.5
20260503051921 48 297 0.9 1.7 0.00 0.00 0.00 95 1006.6
20260503051418 47 135 0.0 0.0 0.00 0.00 0.00 97 1006.7
20260503050915 47 127 0.0 0.0 0.00 0.00 0.00 94 1006.6
20260503050411 47 151 0.0 0.0 0.00 0.00 0.00 96 1006.7
20260503045908 46 103 0.0 0.0 0.00 0.02 0.02 98 1006.7
20260503045406 47 119 0.0 0.0 0.00 0.02 0.02 98 1006.7
20260503044903 47 98 0.0 0.0 0.00 0.02 0.02 97 1006.9
20260503044359 47 84 0.0 0.0 0.00 0.02 0.02 98 1006.8
20260503043856 47 81 0.0 0.0 0.05 0.02 0.02 98 1007.0
20260503043353 46 94 0.0 0.0 0.05 0.02 0.02 98 1007.0
20260503042849 47 94 0.0 0.0 0.00 0.01 0.01 97 1007.3
20260503042346 46 129 0.0 0.0 0.00 0.01 0.01 98 1007.3
20260503041842 46 59 0.0 0.0 0.00 0.01 0.01 98 1007.1
20260503041340 47 84 0.0 0.0 0.00 0.01 0.01 97 1007.2
20260503040837 47 84 0.0 0.0 0.00 0.01 0.01 96 1007.1
20260503040335 47 44 0.0 0.0 0.00 0.01 0.01 96 1007.3
20260503035831 47 91 0.0 0.0 0.00 0.01 0.01 97 1007.3
20260503035328 47 44 0.0 0.9 0.00 0.01 0.01 96 1007.3
20260503034826 47 53 0.9 0.9 0.00 0.01 0.01 96 1007.5
20260503034323 48 61 0.0 0.9 0.00 0.01 0.01 95 1007.3
20260503033820 48 23 0.0 0.9 0.00 0.01 0.01 96 1007.5
20260503033318 48 45 0.0 0.0 0.00 0.01 0.01 96 1007.7
20260503032815 48 57 0.9 0.9 0.00 0.01 0.01 96 1007.7
20260503032314 47 30 0.9 0.9 0.00 0.01 0.01 98 1007.6
20260503031811 48 42 0.9 0.9 0.00 0.01 0.01 97 1007.9
20260503031309 48 91 0.0 0.0 0.00 0.01 0.01 97 1008.1
20260503030805 48 31 0.0 0.0 0.00 0.01 0.01 96 1008.3
20260503030302 49 216 0.0 0.0 0.07 0.01 0.01 91 1008.5
20260503025758 49 216 0.0 0.0 0.07 0.01 0.01 90 1008.5
20260503025256 50 216 0.0 0.0 0.00 0.00 0.00 88 1008.6
20260503024752 50 216 0.0 0.0 0.00 0.00 0.00 84 1008.6
20260503024249 50 216 0.0 0.0 0.00 0.00 0.00 81 1008.5
20260503023746 50 216 0.0 0.0 0.00 0.00 0.00 81 1008.6
20260503023243 51 213 0.0 0.0 0.00 0.00 0.00 83 1008.4
20260503022739 50 122 0.0 0.0 0.00 0.00 0.00 82 1008.5
20260503022234 51 114 0.0 0.0 0.00 0.00 0.00 83 1008.3
20260503021731 51 112 0.0 0.0 0.00 0.00 0.00 77 1008.3
20260503021227 52 152 0.0 0.0 0.00 0.00 0.00 76 1008.4
20260503020725 53 232 0.0 0.0 0.00 0.00 0.00 73 1008.5
20260503020222 53 210 0.0 0.0 0.00 0.00 0.00 71 1008.4
20260503015719 53 181 0.0 0.0 0.00 0.00 0.00 71 1008.7
20260503015216 54 203 0.9 0.9 0.00 0.00 0.00 68 1008.9
20260503014711 54 256 0.0 0.9 0.00 0.00 0.00 66 1008.9
20260503014210 54 272 0.9 1.7 0.00 0.00 0.00 66 1008.7
20260503013707 54 289 1.7 1.7 0.00 0.00 0.00 64 1008.9
20260503013205 55 254 1.7 2.6 0.00 0.00 0.00 63 1008.7
20260503012702 56 209 4.3 7.0 0.00 0.00 0.00 59 1008.9
20260503012158 56 220 3.5 3.5 0.00 0.00 0.00 56 1008.5
20260503011655 56 210 3.5 6.1 0.00 0.00 0.00 56 1008.4
20260503011152 57 219 4.3 6.1 0.00 0.00 0.00 52 1008.5
20260503010648 58 216 2.6 3.5 0.00 0.00 0.00 48 1008.4
20260503010145 58 174 1.7 2.6 0.00 0.00 0.00 47 1008.2
20260503005642 58 210 0.9 1.7 0.00 0.00 0.00 48 1007.9
20260503005139 58 244 1.7 2.6 0.00 0.00 0.00 45 1008.1
20260503004636 59 262 2.6 3.5 0.00 0.00 0.00 45 1007.9
20260503004134 59 203 4.3 8.7 0.00 0.00 0.00 44 1007.9
20260503003631 59 173 2.6 5.2 0.00 0.00 0.00 44 1008.0
20260503003128 59 191 1.7 1.7 0.00 0.00 0.00 44 1008.0
20260503002625 59 296 0.9 0.9 0.00 0.00 0.00 42 1008.0
20260503002122 59 209 0.9 1.7 0.00 0.00 0.00 43 1008.0
20260503001618 59 269 1.7 2.6 0.00 0.00 0.00 44 1008.0
20260503001115 60 226 0.0 0.9 0.00 0.00 0.00 43 1007.9
20260503000613 60 167 1.7 2.6 0.00 0.00 0.00 42 1008.0
20260503000109 60 227 1.7 1.7 0.00 0.00 0.00 42 1008.1
20260502235606 60 244 2.6 3.5 0.00 0.00 0.00 40 1007.9
20260502235104 59 207 0.9 0.9 0.00 0.00 0.00 42 1007.8
20260502234559 59 173 0.9 0.9 0.00 0.00 0.00 43 1007.9
20260502234058 59 178 0.9 0.9 0.00 0.00 0.00 42 1007.8
20260502233558 59 158 0.0 0.0 0.00 0.00 0.00 44 1007.9
20260502233055 59 133 0.0 0.0 0.00 0.00 0.00 44 1007.8
20260502232551 60 86 0.0 0.0 0.00 0.00 0.00 43 1008.0
20260502232049 60 203 0.9 0.9 0.00 0.00 0.00 41 1007.9
20260502231545 60 171 1.7 2.6 0.00 0.00 0.00 40 1008.0
20260502231043 60 128 0.0 0.0 0.00 0.00 0.00 42 1008.0
20260502230541 60 139 0.0 0.0 0.00 0.00 0.00 41 1008.0
20260502230039 60 106 0.0 0.0 0.00 0.00 0.00 41 1008.1